sat.trackr.live / text

‹ back to catalog

STARLINK-5915

NORAD 55987 · 2023-042B

PAYLOAD ACTIVE UNKNOWN

§ Identity

Operator
Country
US
Launch date
2023-03-24
Launch site
AFETR
Launch vehicle
Mass (kg)
RCS (m²)

Purposes: comms

External: N2YO · Heavens-Above · Gunter

§ Orbital elements

Epoch: 2026-09-20T08:57:01.129536Z

Period
94.27 min
Inclination
43.0043°
Eccentricity
0.0001261
Mean motion
15.27575616 rev/d
Perigee alt
482.2 km
Apogee alt
483.9 km
Semi-major
6,861.2 km
B*
-1.9528e-5
RAAN
40.1496°
Arg perigee
278.8808°
Mean anomaly
81.1901°
Rev number
19,264

§ Raw data

STARLINK-59151 55987U 23042B   26263.37292974 -.00000799  00000+0 -19528-4 0  99922 55987  43.0043  40.1496 0001261 278.8808  81.1901 15.27575616192642

JSON: /api/v1/satellites/55987 · /tle

For live sub-satellite position, see the globe view (requires WebGL).

§ Visibility from observer

Set your observer location to see the next 7 days of passes ≥ 10°. The values pass through the URL so the page stays shareable.

No JS? Fill the form by hand. The geolocation button needs JavaScript.